Total_Precipitation_Accumulation
1.99 2.06 2.03 2.02 2.00 1.89 1.87 2.02 2.12 1.96 1.81 1.63 1.50 1.43 1.45 1.37 1.46 1.30 1.25 1.19 1.03 0.98 1.00 0.96 1.10 1.42 1.62 1.80 1.98 1.99 2.09 2.19 2.28 2.41 2.36 2.23 2.19 2.03
1.99 2.10 2.13 2.13 2.14 2.07 1.94 1.93 1.89 1.92 1.84 1.62 1.44 1.36 1.49 1.36 1.47 1.29 1.24 1.39 1.20 1.12 1.04 0.91 0.89 0.95 1.08 1.26 1.46 1.59 1.64 1.69 1.78 2.02 2.21 2.21 2.10 1.90
1.79 1.89 2.02 2.11 2.23 2.24 2.23 2.11 1.97 1.92 1.84 1.68 1.48 1.35 1.49 1.55 1.48 1.43 1.31 1.24 1.24 1.22 1.09 1.03 0.95 0.82 0.89 0.98 1.15 1.31 1.40 1.29 1.22 1.36 1.61 1.72 1.89 1.88
1.63 1.60 1.68 1.78 1.94 2.09 2.18 2.13 2.11 2.01 1.92 1.89 1.70 1.45 1.36 1.46 1.52 1.60 1.51 1.29 1.25 1.34 1.27 1.16 1.07 0.90 0.81 0.84 0.95 1.02 1.06 1.09 1.00 0.96 1.08 1.18 1.28 1.45
1.40 1.37 1.39 1.47 1.62 1.77 1.86 1.94 2.05 2.09 2.09 1.99 1.89 1.71 1.47 1.49 1.58 1.61 1.64 1.69 1.45 1.35 1.36 1.31 1.21 1.11 1.02 0.93 0.90 0.92 0.89 0.91 0.91 0.84 0.82 0.94 0.99 1.13
1.11 1.11 1.16 1.21 1.29 1.43 1.58 1.80 1.98 2.09 2.15 2.14 2.03 1.81 1.65 1.63 1.62 1.64 1.73 1.79 1.75 1.52 1.42 1.34 1.38 1.33 1.18 1.08 1.00 0.97 0.97 0.92 0.91 0.91 0.82 0.79 0.83 0.85
0.90 0.81 0.83 0.90 0.93 1.02 1.07 1.36 1.61 1.84 1.96 2.03 2.01 1.86 1.65 1.56 1.44 1.47 1.62 1.78 1.86 1.81 1.72 1.45 1.38 1.34 1.29 1.23 1.14 1.06 1.01 1.04 0.99 0.97 0.97 0.91 0.91 0.89
0.80 0.72 0.70 0.74 0.66 0.63 0.68 0.90 1.20 1.40 1.58 1.76 1.82 1.70 1.56 1.49 1.53 1.53 1.54 1.60 1.63 1.56 1.56 1.57 1.50 1.41 1.34 1.28 1.27 1.24 1.17 1.12 1.15 1.10 1.08 1.06 1.04 1.08
0.81 0.84 0.76 0.71 0.79 0.71 0.65 0.72 0.80 0.92 1.08 1.35 1.58 1.56 1.65 1.58 1.49 1.44 1.46 1.49 1.50 1.55 1.56 1.56 1.47 1.38 1.28 1.24 1.36 1.29 1.30 1.25 1.26 1.29 1.19 1.20 1.17 1.16
0.87 0.95 0.96 0.89 0.88 0.95 0.89 0.90 0.87 0.80 0.87 0.80 1.01 1.39 1.53 1.59 1.54 1.57 1.66 1.59 1.47 1.50 1.52 1.55 1.48 1.36 1.22 1.15 1.24 1.15 1.10 1.10 1.17 1.34 1.41 1.38 1.40 1.37
0.80 0.91 0.96 0.90 0.95 1.01 1.12 1.19 1.11 0.96 1.07 1.08 0.99 1.10 1.24 1.30 1.41 1.51 1.58 1.51 1.47 1.39 1.28 1.26 1.22 1.25 1.30 1.21 1.17 1.20 1.10 1.05 1.01 1.03 1.14 1.22 1.32 1.47
0.82 0.88 1.02 0.95 0.93 0.90 0.99 1.14 1.13 1.00 0.87 0.91 0.88 0.78 0.72 0.83 1.02 1.20 1.48 1.60 1.54 1.45 1.25 1.18 1.21 1.19 1.23 1.16 1.06 1.09 1.06 1.11 1.08 1.01 1.06 1.14 1.22 1.28
0.95 0.99 0.97 1.06 0.89 0.85 0.86 0.88 0.97 0.96 0.94 0.98 1.05 0.95 0.83 0.78 0.82 0.91 1.11 1.33 1.47 1.40 1.27 1.14 1.17 1.20 1.13 1.01 0.96 0.98 0.98 0.96 0.98 1.03 1.09 1.20 1.27 1.20
0.83 0.83 0.80 0.90 0.75 0.67 0.63 0.69 0.77 0.82 0.91 1.03 1.02 0.98 0.97 0.92 0.90 0.92 0.97 1.07 1.17 1.24 1.25 1.22 1.17 1.15 1.13 1.00 0.94 0.95 0.95 0.93 0.89 0.91 0.95 1.18 1.35 1.39
0.55 0.64 0.66 0.65 0.60 0.53 0.59 0.63 0.65 0.68 0.79 0.88 0.90 0.87 0.87 0.91 0.92 0.92 0.93 0.97 0.97 0.92 0.92 1.00 1.10 1.15 1.17 1.09 0.97 0.95 0.95 0.91 0.84 0.84 0.89 0.95 1.04 1.21
0.47 0.49 0.49 0.49 0.50 0.52 0.55 0.60 0.65 0.70 0.73 0.76 0.76 0.79 0.81 0.88 0.94 0.91 0.91 0.96 1.02 0.98 0.94 0.97 1.04 1.16 1.19 1.12 1.08 1.02 0.99 0.94 0.85 0.82 0.83 0.88 0.98 1.09
0.56 0.51 0.47 0.48 0.51 0.57 0.60 0.60 0.64 0.68 0.67 0.67 0.69 0.72 0.71 0.77 0.82 0.83 0.85 0.88 0.91 0.89 0.91 0.99 1.05 1.10 1.12 1.14 1.16 1.10 1.08 1.07 1.03 1.00 0.96 0.92 0.92 1.00
0.55 0.62 0.64 0.69 0.72 0.72 0.70 0.62 0.58 0.58 0.64 0.69 0.69 0.70 0.71 0.70 0.75 0.78 0.80 0.86 0.88 0.82 0.78 0.83 0.94 1.05 1.06 0.99 0.93 0.93 0.96 0.98 1.05 1.11 1.06 1.01 0.96 0.98
0.52 0.68 0.69 0.68 0.65 0.63 0.60 0.54 0.49 0.46 0.49 0.58 0.68 0.75 0.76 0.76 0.80 0.83 0.83 0.80 0.79 0.80 0.75 0.71 0.76 0.90 0.96 0.85 0.76 0.74 0.77 0.82 0.91 0.96 0.99 0.95 0.90 0.93
0.49 0.58 0.61 0.59 0.51 0.46 0.41 0.36 0.36 0.35 0.35 0.40 0.46 0.56 0.71 0.83 0.91 0.92 0.93 0.95 0.94 0.90 0.85 0.76 0.69 0.71 0.80 0.82 0.74 0.64 0.64 0.71 0.81 0.85 0.85 0.88 0.89 0.96
0.29 0.30 0.32 0.34 0.34 0.31 0.28 0.29 0.30 0.30 0.31 0.33 0.36 0.41 0.51 0.66 0.84 0.94 0.96 1.00 0.99 0.99 0.98 0.90 0.86 0.91 0.85 0.88 0.85 0.67 0.59 0.62 0.70 0.74 0.78 0.86 0.88 0.86
0.19 0.20 0.21 0.21 0.23 0.24 0.24 0.25 0.28 0.30 0.29 0.32 0.37 0.43 0.54 0.60 0.65 0.75 0.88 0.91 0.85 0.81 0.83 0.86 0.91 0.93 0.91 0.96 0.93 0.80 0.69 0.63 0.68 0.76 0.79 0.82 0.84 0.83
0.21 0.21 0.21 0.21 0.24 0.29 0.30 0.28 0.29 0.30 0.30 0.32 0.36 0.43 0.52 0.61 0.66 0.69 0.72 0.76 0.79 0.82 0.83 0.84 0.86 0.87 0.90 0.96 1.04 1.02 0.89 0.78 0.75 0.78 0.79 0.88 0.84 0.74